Location: �terpigny
(49.8910°N, 2.9249°E)
Time: 12:15:00
(UTC+00:00)

RS-44 - Pass Details

Date: 09 July 2022
Orbit: 1175 x 1510 km, 82.5° (Epoch: 12 August)

Event Time Altitude Azimuth Distance (km) Brightness Sun altitude
Rises 20:49:56 0° 223° (SW) 4,468 ? -7.2°
Reaches altitude 10° 20:53:02 10° 232° (SW) 3,538 ? -7.5°
Maximum altitude 21:00:45 36° 297° (WNW) 2,196 ? -8.3°
Drops below altitude 10° 21:08:48 10° 1° (N) 3,680 ? -9.1°
Sets 21:12:08 0° 10° (N) 4,667 ? -9.5°
